Theta_e
345 349 348 345 345 345 345 345 347 346 343 344 342 346 344 343 343 342 337 333 333 335 333 325 324 329 329 325 327 327 327 328 326 328 332 333 331 327 330 328 325 325 324
349 349 348 350 349 347 345 343 345 346 345 341 338 343 342 341 341 337 341 341 328 333 335 334 334 330 328 329 327 329 325 324 329 329 328 332 334 333 329 326 324 324 328
349 349 346 348 350 346 346 345 345 346 342 342 338 341 340 340 340 337 340 341 339 332 332 335 337 337 334 332 331 333 332 329 325 323 324 326 328 330 332 331 329 325 324
348 347 349 349 349 347 345 347 343 340 340 341 340 340 337 339 338 337 338 339 341 338 337 334 334 335 335 334 333 333 335 332 331 329 327 325 326 332 329 326 325 324 323
344 345 347 344 347 347 348 345 348 345 343 343 339 337 334 339 339 338 339 339 337 341 341 341 336 335 335 334 333 332 332 334 334 336 337 335 332 332 333 334 333 332 332
345 343 347 349 348 347 345 343 344 344 345 338 340 337 338 340 340 339 339 340 340 340 342 341 340 338 337 336 336 336 336 332 332 334 336 338 338 338 334 336 336 331 333
348 345 344 351 353 347 348 345 345 340 345 337 333 337 337 339 340 339 339 336 339 341 341 338 341 342 340 341 338 334 337 337 334 333 334 332 336 338 339 339 339 339 339
348 348 347 349 351 350 349 348 342 346 344 335 337 338 336 337 340 340 340 340 340 338 336 336 337 340 339 338 333 330 332 333 331 329 331 333 333 334 333 334 333 332 333
346 349 349 349 351 349 350 348 344 346 344 336 337 340 340 337 340 340 338 338 338 337 336 336 331 335 337 339 337 325 322 323 326 330 331 327 321 319 319 319 319 318 317
347 348 351 350 348 350 348 349 342 341 346 343 337 338 342 343 339 338 337 337 337 338 337 335 338 336 331 329 328 327 322 319 319 319 322 323 324 324 322 321 320 320 320
348 350 348 350 349 348 345 351 348 343 345 345 340 333 341 341 340 340 337 339 338 337 338 338 339 338 338 337 332 327 325 322 322 324 326 328 329 329 328 326 323 321 320
348 351 351 349 351 352 345 351 351 350 341 344 341 338 336 338 338 340 339 340 339 339 340 340 338 339 338 337 338 335 331 329 328 328 329 329 329 329 329 328 328 327 326
347 348 351 351 347 344 347 350 352 352 344 343 343 338 337 337 337 339 337 339 341 340 340 341 341 340 340 339 338 338 338 337 333 330 329 329 329 329 329 328 328 328 328
349 349 352 351 349 347 343 344 347 349 346 335 340 338 337 338 338 338 338 338 337 340 341 340 341 340 339 339 338 337 338 337 337 336 332 330 330 330 329 328 327 327 326
348 351 352 352 351 350 349 344 345 349 347 346 332 329 330 337 338 337 337 337 336 337 339 341 339 338 339 339 338 337 337 337 336 335 334 334 333 331 329 326 326 326 326
345 353 354 353 351 350 349 348 343 349 351 346 338 333 328 333 337 338 339 338 336 337 337 337 339 339 337 337 337 336 334 336 335 332 334 333 331 329 328 326 326 326 326
347 351 350 353 353 351 350 349 340 345 347 346 347 342 333 328 332 336 337 338 336 336 336 336 337 339 338 337 336 335 333 332 330 331 328 329 332 331 327 329 329 329 329
337 354 354 354 355 355 352 351 342 340 342 343 343 344 340 334 332 330 333 332 333 333 333 331 335 338 339 337 337 337 336 333 330 328 335 336 336 335 333 331 331 331 330
333 336 353 354 353 354 355 353 349 337 334 338 340 346 343 345 341 333 333 331 331 332 332 334 332 336 338 338 338 338 338 336 335 333 331 335 336 334 333 333 333 332 331
335 336 340 344 348 350 349 348 347 346 343 335 332 333 336 341 336 336 335 331 331 333 333 334 335 338 338 339 339 338 338 337 336 336 335 335 335 335 334 333 334 332 332
336 337 339 341 343 346 347 347 346 346 346 345 340 335 333 331 331 334 335 336 333 331 333 335 336 337 337 338 338 336 338 336 337 337 337 337 337 336 336 335 333 333 332
337 340 339 341 343 343 342 343 343 344 344 345 345 344 340 336 334 333 333 335 335 338 335 331 332 335 335 335 334 334 334 338 338 338 338 338 337 336 336 335 334 333 330
345 343 344 344 342 340 339 339 340 342 342 343 343 344 345 344 344 342 341 341 341 340 342 342 339 332 329 330 334 335 333 339 339 339 338 336 335 336 335 334 334 331 329
351 350 348 345 343 339 337 337 338 341 341 341 341 342 345 346 347 349 349 349 348 347 346 349 347 345 340 331 333 334 334 336 339 339 338 337 333 335 332 333 332 330 325
356 355 354 352 347 343 341 338 341 345 345 341 340 343 347 350 352 354 354 354 353 352 352 351 351 350 349 341 336 335 337 335 336 338 338 334 334 332 332 332 329 326 321
356 356 355 353 351 348 348 347 348 351 347 345 347 347 353 355 358 358 359 358 357 356 355 354 354 353 351 344 340 336 337 332 334 337 337 333 334 332 330 329 326 321 318
Wind_Speed
4 4 5 5 8 1 1 5 6 6 9 8 10 10 11 5 5 7 8 8 4 3 3 4 5 5 5 5 5 4 3 3 2 2 1 1 1 0 1 2 3 4 4
6 5 3 2 6 7 7 4 5 1 8 8 10 8 7 3 4 6 7 8 7 5 3 3 3 3 4 4 4 4 2 2 2 1 2 2 2 2 2 1 2 3 3
4 4 7 7 4 8 9 5 5 3 6 7 7 5 2 2 2 4 6 6 7 7 7 5 3 2 3 3 4 4 3 3 3 3 3 3 3 3 3 3 3 2 2
7 9 9 5 5 5 3 4 3 8 5 5 2 3 4 4 1 4 4 4 3 5 8 6 5 4 1 2 3 4 5 5 4 3 3 3 4 4 4 3 4 4 4
10 10 3 1 5 4 6 5 2 2 2 3 4 2 3 4 6 3 4 4 4 4 3 5 5 5 4 2 1 2 5 6 5 6 7 6 5 6 6 5 7 6 6
7 10 6 5 7 8 6 3 4 2 4 4 10 7 3 3 9 7 3 3 2 5 4 5 4 5 3 1 1 2 2 3 4 5 5 6 8 9 8 9 9 8 9
9 10 8 8 4 6 5 3 7 5 4 2 7 9 7 6 7 5 5 4 3 8 6 3 3 2 3 1 2 3 2 3 4 5 7 7 6 6 7 8 7 9 9
10 10 10 6 7 7 7 4 10 8 8 12 10 6 12 10 9 6 9 5 5 7 2 2 1 3 2 2 1 2 4 5 6 5 4 4 4 4 5 5 6 6 7
17 10 10 11 11 9 9 5 9 11 9 9 7 7 6 4 13 9 6 7 6 5 1 5 3 1 3 3 4 3 2 4 3 2 2 2 2 1 1 2 3 4 4
17 14 11 12 12 11 11 5 8 10 10 7 4 9 6 5 10 10 10 10 9 6 5 7 3 5 4 2 2 2 2 0 1 3 4 4 3 4 4 4 4 4 4
16 14 13 12 14 12 12 9 10 10 10 7 6 10 8 7 5 8 13 13 12 11 10 9 5 7 7 5 3 1 1 2 3 4 4 3 3 5 6 6 6 7 8
20 19 16 14 15 13 14 14 12 10 10 13 11 8 7 11 8 6 11 13 15 12 13 12 9 9 9 6 5 6 3 1 1 1 1 1 2 4 5 6 8 8 9
24 21 20 18 16 16 13 18 16 13 14 18 15 12 10 8 8 5 8 7 12 13 14 16 14 11 11 9 9 9 9 8 6 6 6 5 5 6 7 8 9 10 10
23 21 18 20 16 10 13 18 20 15 13 15 17 19 17 14 11 9 11 8 2 11 19 15 15 15 14 12 10 11 12 12 11 12 11 11 10 10 10 10 11 13 13
25 23 23 21 22 18 14 16 23 20 17 14 14 15 17 20 17 13 13 15 12 8 11 18 18 15 15 14 13 13 13 15 15 14 13 13 13 12 12 11 12 14 15
27 28 21 19 23 21 19 17 22 24 21 18 16 15 16 17 18 17 15 14 19 17 16 15 16 21 18 18 17 16 14 13 13 14 14 13 14 14 13 12 14 16 17
29 27 27 21 23 25 22 18 22 26 27 23 21 20 17 18 21 21 19 19 18 20 23 21 15 16 20 21 18 16 16 17 15 16 17 14 11 11 13 15 17 17 19
37 32 30 30 24 25 24 20 19 27 27 28 26 25 24 22 24 24 25 23 23 23 23 21 21 19 24 22 19 16 16 19 21 16 13 12 16 16 15 15 13 15 14
37 38 38 35 33 29 26 25 22 21 27 30 29 29 28 27 28 29 30 30 28 26 26 27 24 24 23 21 21 20 19 17 16 19 18 17 16 15 17 17 15 14 14
39 38 38 39 40 39 37 32 29 27 26 28 33 35 35 34 33 32 31 34 35 34 32 32 31 30 29 25 25 25 24 21 15 16 18 19 16 13 18 18 15 14 15
41 41 41 41 41 41 41 41 37 35 33 32 32 36 39 39 39 38 36 35 36 39 40 38 37 36 34 35 34 29 26 23 20 16 19 19 19 14 18 17 15 13 14
39 42 44 44 44 44 43 42 40 38 38 38 38 36 38 39 40 40 40 38 37 38 42 45 44 42 39 38 33 30 27 27 27 23 21 19 19 15 19 19 16 13 14
39 40 40 40 43 44 44 44 42 41 42 42 42 42 43 43 43 42 42 41 41 41 40 40 43 46 46 41 35 30 28 27 31 31 29 21 16 18 17 23 19 12 11
41 41 42 42 42 42 40 42 42 42 44 45 45 46 47 47 46 45 44 44 45 44 43 43 43 44 45 43 37 30 26 25 30 37 26 21 21 22 18 18 14 13 12
41 43 44 44 45 46 44 42 41 44 47 50 49 48 50 52 51 48 47 47 47 48 46 46 46 47 45 42 40 34 36 33 38 39 35 24 19 16 11 14 13 12 10
42 41 43 44 45 46 47 46 44 44 48 51 50 52 54 54 52 50 49 48 52 54 50 51 51 50 52 46 48 49 43 42 35 36 31 25 19 11 12 15 14 10 6
Wind_Direction
196 155 115 155 76 24 159 59 97 81 95 65 93 140 167 168 140 107 77 56 102 102 82 119 131 143 137 135 140 134 147 156 157 142 157 158 156 43 16 358 353 0 2
155 145 172 128 99 100 119 55 59 121 113 102 114 72 151 96 101 49 97 60 82 119 115 111 127 137 148 149 132 160 157 171 206 229 235 250 246 264 314 358 359 359 2
153 137 178 138 119 98 109 99 79 107 126 119 126 115 189 167 46 118 106 83 83 90 107 118 146 164 165 173 181 184 195 194 207 216 225 239 248 259 286 307 331 325 296
191 200 182 185 130 122 113 121 92 128 122 134 97 128 134 162 82 164 101 84 151 96 93 100 114 123 169 218 216 203 220 228 229 246 253 247 251 260 284 299 286 270 265
206 203 195 153 138 139 178 161 197 167 149 148 156 148 137 142 167 145 130 88 103 135 125 79 76 111 109 120 142 224 236 237 243 245 248 249 254 261 266 274 271 277 289
217 226 195 138 137 140 153 154 183 182 122 108 147 146 144 131 168 163 116 156 171 112 119 80 58 140 121 284 288 263 262 244 242 242 253 250 246 257 256 263 273 280 284
239 221 212 184 213 200 176 229 193 203 157 155 158 165 157 126 150 126 108 167 183 134 123 85 66 74 19 237 344 246 263 239 238 246 246 238 239 245 261 268 272 273 282
246 240 223 208 200 207 196 230 182 183 176 157 155 164 138 155 154 133 159 164 169 153 142 101 243 239 237 277 161 294 257 249 250 250 246 227 232 244 254 277 280 287 287
243 230 222 202 193 210 217 212 204 205 183 169 200 178 186 169 162 161 158 153 153 176 229 352 27 275 250 219 312 355 285 253 243 228 180 157 141 146 334 299 309 312 303
237 239 229 219 213 207 215 197 184 185 188 181 180 199 172 165 158 169 173 174 227 215 239 285 280 348 353 323 337 318 356 242 157 136 117 106 78 56 39 25 359 348 356
227 234 236 224 229 231 232 199 194 195 195 200 196 200 201 178 154 196 197 208 211 242 253 268 252 294 320 347 318 259 107 143 149 130 129 114 69 28 19 16 14 13 12
233 233 232 242 235 230 224 218 210 215 214 204 200 209 232 203 189 184 207 221 235 232 236 249 254 260 306 310 306 310 300 333 235 183 214 264 343 344 355 349 352 347 345
228 234 234 237 242 235 222 220 225 240 223 209 205 202 206 184 192 243 245 281 261 235 229 235 258 260 272 288 278 293 298 293 291 280 268 277 295 309 317 323 324 321 320
228 235 233 234 234 231 229 229 228 229 216 215 216 218 213 203 208 230 237 245 253 229 228 239 242 246 262 271 281 274 275 272 281 286 282 281 287 297 306 313 318 316 313
227 238 241 239 234 233 237 231 232 229 233 227 220 217 217 212 212 221 239 239 235 237 227 231 235 240 247 252 263 277 280 281 281 280 276 279 282 285 289 302 313 319 319
220 225 237 243 237 235 246 245 228 231 231 234 222 222 220 212 215 224 228 235 228 236 243 240 241 252 241 244 254 265 273 279 287 281 277 275 279 281 280 292 311 313 316
220 223 230 233 231 234 240 250 235 228 232 236 240 238 231 225 223 227 228 235 232 230 238 238 235 238 238 241 251 263 267 271 278 285 281 267 264 279 279 295 305 315 313
225 220 226 232 233 235 239 246 247 231 228 231 239 245 246 239 233 229 233 236 240 238 235 236 231 232 229 238 250 266 276 276 269 261 253 254 270 276 280 297 303 315 323
231 226 223 232 238 241 241 244 248 247 240 238 241 242 245 247 248 242 238 241 244 243 243 242 238 241 242 241 239 247 260 264 271 264 263 262 260 272 279 284 285 296 299
235 233 232 232 237 241 245 248 249 250 248 244 246 249 249 250 253 253 248 245 246 247 245 244 242 239 243 246 249 252 253 259 262 246 253 256 252 262 274 272 277 274 284
240 241 239 240 241 241 244 248 251 252 253 252 251 250 254 257 258 258 257 253 248 246 248 246 245 244 241 242 247 251 255 262 258 251 245 247 244 242 262 262 274 284 291
240 241 245 245 244 245 247 250 252 253 255 255 256 257 258 260 262 262 262 260 257 254 251 248 250 249 249 244 243 243 250 250 251 248 241 236 249 262 256 266 273 274 275
244 245 243 245 247 248 248 249 252 253 255 257 259 260 260 260 262 263 265 267 264 262 259 259 256 255 255 251 247 237 237 250 256 245 231 237 256 258 249 277 274 265 268
245 245 248 247 248 249 249 249 251 253 257 259 262 264 264 265 265 264 265 266 267 268 266 259 258 259 258 257 249 242 237 252 259 247 242 255 279 265 270 262 249 255 275
245 247 249 251 250 251 250 250 250 250 253 258 262 263 265 268 269 267 268 270 273 270 271 270 267 267 261 252 245 224 234 265 266 249 259 257 262 282 252 236 239 262 270
249 251 252 253 255 256 256 255 253 251 254 258 261 265 265 265 267 265 261 264 269 272 274 273 268 261 257 244 235 240 239 253 258 251 250 253 244 239 216 224 239 249 234